Weather History for Boonville, MO

Change the Weather History Date:

Friday, January 18, 2013

  Actual Average Record
Temperature  
Mean Temperature 41 °F -  
Max Temperature 56 °F 36 °F 62 °F (1986)
Min Temperature 26 °F 18 °F -4 °F (1978)
Degree Days  
Heating Degree Days 24    
Moisture  
Dew Point 25 °F    
Average Humidity 56    
Maximum Humidity 84    
Minimum Humidity 29    
Precipitation  
Precipitation 0.00 in - - ()
Sea Level Pressure  
Sea Level Pressure 30.25 in    
Wind  
Wind Speed 8 mph (South)    
Max Wind Speed 18 mph    
Max Gust Speed 28 mph    
Visibility 10 miles    
Events      
Averages and records for this station are not official NWS values.
T = Trace of Precipitation, MM = Missing Value Source: NWS Daily Summary

Daily Weather History Graph

Daily Weather History Graph

Search for Another Location

Airport:

Trip Planner

Search our weather history database for the weather conditions in past years. The results will help you decide how hot, cold, wet, or windy it might be!

Date:

Astronomy

Jan. 18, 2013 Rise Set
Actual Time 7:26 AM CST 5:16 PM CST
Civil Twilight 6:57 AM CST 5:45 PM CST
Nautical Twilight 6:24 AM CST 6:18 PM CST
Astronomical Twilight 5:53 AM CST 6:49 PM CST
Moon 11:09 AM CST (1/18) 12:02 AM CST (1/18)
Length of Visible Light 10h 47m
Length of Day
9h 49m
Waxing Crescent, 47% of the Moon is Illuminated
Jan 18
Waxing Crescent
Jan 18
First Quarter
Jan 26
Full
Feb 3
Last Quarter
Feb 10
New

Hourly Weather History & Observations

Time (CST) Temp. Windchill Dew Point Humidity Pressure Visibility Wind Dir Wind Speed Gust Speed Precip Events Conditions
12:15 AM 27.0 °F 21.6 °F 22.5 °F 83% 30.44 in 10.0 mi South 4.6 mph - N/A   Clear
12:35 AM 27.0 °F 20.5 °F 22.5 °F 83% 30.45 in 10.0 mi South 5.8 mph - N/A   Clear
12:55 AM 27.1 °F 19.7 °F 22.5 °F 83% 30.44 in 10.0 mi SSE 6.9 mph - N/A   Clear
1:15 AM 27.0 °F 21.6 °F 22.6 °F 84% 30.44 in 10.0 mi SE 4.6 mph - N/A   Clear
1:35 AM 26.6 °F 21.2 °F 22.5 °F 84% 30.44 in 10.0 mi SSE 4.6 mph - N/A   Clear
1:55 AM 27.0 °F 20.5 °F 22.8 °F 84% 30.45 in 10.0 mi SSE 5.8 mph - N/A   Clear
2:15 AM 27.3 °F 20.9 °F 22.8 °F 83% 30.45 in 10.0 mi SSE 5.8 mph - N/A   Clear
2:35 AM 27.3 °F 19.9 °F 22.6 °F 83% 30.45 in 10.0 mi SSE 6.9 mph - N/A   Clear
2:55 AM 27.3 °F 19.9 °F 22.8 °F 83% 30.44 in 10.0 mi SSE 6.9 mph - N/A   Clear
3:15 AM 27.3 °F 19.1 °F 23.0 °F 84% 30.44 in 10.0 mi SSE 8.1 mph - N/A   Clear
3:35 AM 27.7 °F 20.4 °F 23.0 °F 83% 30.43 in 10.0 mi South 6.9 mph - N/A   Clear
3:55 AM 27.7 °F 19.6 °F 23.4 °F 84% 30.42 in 10.0 mi SSE 8.1 mph - N/A   Clear
4:15 AM 28.4 °F 21.2 °F 23.7 °F 83% 30.42 in 10.0 mi SSE 6.9 mph - N/A   Clear
4:35 AM 28.6 °F 19.9 °F 23.7 °F 82% 30.41 in 10.0 mi SSE 9.2 mph - N/A   Clear
4:55 AM 28.8 °F 20.9 °F 23.7 °F 81% 30.41 in 10.0 mi SSE 8.1 mph - N/A   Clear
5:15 AM 28.6 °F 20.7 °F 23.7 °F 82% 30.40 in 10.0 mi SSE 8.1 mph - N/A   Clear
5:35 AM 28.6 °F 19.9 °F 23.5 °F 81% 30.40 in 10.0 mi South 9.2 mph - N/A   Clear
5:55 AM 28.9 °F 20.4 °F 23.9 °F 81% 30.39 in 10.0 mi South 9.2 mph - N/A   Clear
6:35 AM 29.5 °F 21.8 °F 24.1 °F 80% 30.39 in 10.0 mi South 8.1 mph - N/A   Clear
6:55 AM 29.3 °F 20.8 °F 23.9 °F 80% 30.39 in 10.0 mi South 9.2 mph - N/A   Clear
7:15 AM 29.5 °F 20.4 °F 24.1 °F 80% 30.38 in 10.0 mi South 10.4 mph - N/A   Clear
7:35 AM 30.6 °F 23.1 °F 24.4 °F 78% 30.38 in 10.0 mi South 8.1 mph - N/A   Clear
7:55 AM 31.5 °F 24.2 °F 24.4 °F 75% 30.37 in 10.0 mi South 8.1 mph - N/A   Clear
8:15 AM 32.2 °F 23.8 °F 24.6 °F 74% 30.37 in 10.0 mi South 10.4 mph - N/A   Clear
8:35 AM 33.1 °F 24.9 °F 25.2 °F 73% 30.36 in 10.0 mi South 10.4 mph - N/A   Clear
8:55 AM 34.3 °F 26.5 °F 25.5 °F 70% 30.36 in 10.0 mi South 10.4 mph - N/A   Clear
9:15 AM 36.0 °F 28.5 °F 26.4 °F 68% 30.36 in 10.0 mi South 10.4 mph - N/A   Clear
9:35 AM 37.9 °F 30.5 °F 26.6 °F 64% 30.36 in 10.0 mi South 11.5 mph 17.3 mph N/A   Clear
9:55 AM 39.7 °F 32.7 °F 27.1 °F 61% 30.35 in 10.0 mi South 11.5 mph 18.4 mph N/A   Clear
10:15 AM 41.9 °F 35.9 °F 28.0 °F 58% 30.34 in 10.0 mi South 10.4 mph 19.6 mph N/A   Clear
10:35 AM 43.9 °F 36.5 °F 28.8 °F 55% 30.33 in 10.0 mi South 16.1 mph - N/A   Clear
10:55 AM 45.0 °F 39.3 °F 28.4 °F 52% 30.31 in 10.0 mi South 11.5 mph 17.3 mph N/A   Clear
11:15 AM 46.6 °F - 28.8 °F 50% 30.30 in 10.0 mi South 16.1 mph - N/A   Clear
11:35 AM 48.0 °F - 28.9 °F 48% 30.27 in 10.0 mi South 13.8 mph 19.6 mph N/A   Clear
11:55 AM 49.5 °F - 28.8 °F 45% 30.25 in 10.0 mi SSW 13.8 mph 20.7 mph N/A   Clear
12:15 PM 50.7 °F - 29.1 °F 43% 30.24 in 10.0 mi SSW 12.7 mph 16.1 mph N/A   Clear
12:35 PM 52.2 °F - 27.7 °F 39% 30.22 in 10.0 mi South 10.4 mph 18.4 mph N/A   Clear
12:55 PM 53.6 °F - 27.1 °F 36% 30.20 in 10.0 mi South 10.4 mph 16.1 mph N/A   Clear
1:15 PM 54.7 °F - 26.6 °F 34% 30.19 in 10.0 mi SSW 12.7 mph 21.9 mph N/A   Clear
1:35 PM 55.4 °F - 25.5 °F 32% 30.18 in 10.0 mi SSW 9.2 mph 20.7 mph N/A   Clear
1:55 PM 55.9 °F - 25.2 °F 31% 30.17 in 10.0 mi SSW 18.4 mph 27.6 mph N/A   Clear
2:15 PM 56.1 °F - 24.3 °F 29% 30.16 in 10.0 mi SW 16.1 mph 26.5 mph N/A   Clear
2:35 PM 56.1 °F - 24.6 °F 30% 30.14 in 10.0 mi SSW 16.1 mph 23.0 mph N/A   Clear
2:55 PM 56.3 °F - 25.3 °F 30% 30.13 in 10.0 mi SSW 12.7 mph 24.2 mph N/A   Clear
3:15 PM 56.7 °F - 25.5 °F 30% 30.12 in 10.0 mi SSW 11.5 mph 20.7 mph N/A   Clear
3:35 PM 56.7 °F - 25.2 °F 30% 30.12 in 10.0 mi SSW 10.4 mph 16.1 mph N/A   Clear
3:55 PM 56.3 °F - 25.0 °F 30% 30.11 in 10.0 mi SSW 13.8 mph 20.7 mph N/A   Clear
4:15 PM 55.6 °F - 25.5 °F 31% 30.10 in 10.0 mi South 10.4 mph 16.1 mph N/A   Clear
4:35 PM 54.7 °F - 26.1 °F 33% 30.10 in 10.0 mi South 10.4 mph 17.3 mph N/A   Clear
4:55 PM 53.6 °F - 25.3 °F 34% 30.10 in 10.0 mi SSW 11.5 mph 18.4 mph N/A   Clear
5:15 PM 52.3 °F - 24.8 °F 34% 30.10 in 10.0 mi SSW 8.1 mph - N/A   Clear
5:35 PM 51.1 °F - 24.1 °F 35% 30.10 in 10.0 mi South 8.1 mph - N/A   Clear
5:55 PM 49.5 °F - 24.3 °F 37% 30.10 in 10.0 mi SSW 9.2 mph - N/A   Clear
6:15 PM 49.8 °F - 23.9 °F 36% 30.10 in 10.0 mi Calm Calm - N/A   Clear
6:35 PM 48.9 °F - 23.9 °F 38% 30.10 in 10.0 mi South 6.9 mph - N/A   Clear
6:55 PM 47.8 °F - 24.3 °F 40% 30.10 in 10.0 mi South 6.9 mph - N/A   Clear
7:15 PM 47.1 °F - 24.6 °F 41% 30.11 in 10.0 mi South 6.9 mph - N/A   Clear
7:35 PM 45.9 °F 42.3 °F 25.3 °F 45% 30.11 in 10.0 mi SSW 6.9 mph - N/A   Clear
7:55 PM 46.0 °F 43.1 °F 25.5 °F 45% 30.11 in 10.0 mi SSW 5.8 mph - N/A   Clear
8:15 PM 45.3 °F 41.6 °F 25.7 °F 46% 30.10 in 10.0 mi South 6.9 mph - N/A   Clear
8:35 PM 45.0 °F 43.5 °F 25.9 °F 47% 30.10 in 10.0 mi SSW 3.5 mph - N/A   Clear
8:55 PM 45.7 °F 43.4 °F 25.3 °F 45% 30.10 in 10.0 mi SSW 4.6 mph - N/A   Clear
9:15 PM 45.3 °F 42.3 °F 25.2 °F 45% 30.10 in 10.0 mi SSW 5.8 mph - N/A   Clear
9:35 PM 45.5 °F 41.8 °F 25.2 °F 45% 30.10 in 10.0 mi South 6.9 mph - N/A   Clear
9:55 PM 45.3 °F 41.1 °F 25.5 °F 46% 30.10 in 10.0 mi SSW 8.1 mph - N/A   Clear
10:15 PM 45.3 °F 41.1 °F 25.9 °F 47% 30.09 in 10.0 mi South 8.1 mph - N/A   Clear
10:35 PM 45.3 °F 40.6 °F 26.4 °F 48% 30.08 in 10.0 mi SSW 9.2 mph - N/A   Clear
10:55 PM 45.3 °F 40.6 °F 26.6 °F 48% 30.08 in 10.0 mi SSW 9.2 mph - N/A   Clear
11:15 PM 45.5 °F 40.8 °F 27.0 °F 48% 30.08 in 10.0 mi SSW 9.2 mph 16.1 mph N/A   Clear
11:35 PM 45.5 °F 40.3 °F 27.3 °F 49% 30.08 in 10.0 mi SSW 10.4 mph 17.3 mph N/A   Clear
11:55 PM 45.3 °F 41.6 °F 27.5 °F 50% 30.07 in 10.0 mi SSW 6.9 mph - N/A   Clear